contact:dominique.lefevre@mio.osupytheas.fr, maurice.libes@osupytheas.fr, didier.mallarino@osupytheas.fr
Project:EMSO http://www.emso-fr.org/EMSO-France
Depth: 2436.0 m
Title:EMSO Ligure Ouest : Data MII capteur AQUADOPP
Date,Latitude,Longitude,X_East,Y_North,Z_Up,Amplitude_X,Amplitude_Y,Amplitude_Z,Batterie,SoundSpeed,Heading,Pitch,Roll,Pressure,TIS,Speed,Direction
, degrees North, degrees East, m.s-1, m.s-1,m.s-1, 1, 1, 1, Volt, m.s-1, degree, degree, degree, dbar, degree_C, m.s-1, degree
2019-12-10T00:04:03,42.805,6.029,0.06,0.012,-0.056,101.0,104.0,99.0,13.4,1505.2,325.8,-0.8,1.9,2470.056,13.3,0.061,78.7
2019-12-10T00:07:03,42.805,6.029,0.085,0.005,-0.026,100.0,103.0,98.0,13.4,1505.3,325.9,-0.7,1.9,2470.044,13.31,0.085,86.6
2019-12-10T00:10:03,42.805,6.029,0.062,0.004,-0.041,100.0,105.0,98.0,13.4,1505.3,325.4,-0.7,1.8,2470.052,13.31,0.062,86.3
2019-12-10T00:13:03,42.805,6.029,0.069,0.005,-0.035,101.0,103.0,98.0,13.3,1505.3,326.6,-0.7,1.9,2470.008,13.31,0.069,85.9
2019-12-10T00:16:03,42.805,6.029,0.08,-0.005,-0.034,100.0,105.0,98.0,13.3,1505.3,325.6,-0.7,1.8,2470.034,13.32,0.08,93.6
2019-12-10T00:19:03,42.805,6.029,0.096,-0.005,-0.035,101.0,102.0,99.0,13.3,1505.3,326.5,-0.7,1.8,2470.0,13.32,0.096,93.0
2019-12-10T00:22:03,42.805,6.029,0.07,0.006,-0.039,102.0,103.0,100.0,13.4,1505.3,325.6,-0.7,1.9,2470.008,13.32,0.07,85.1
2019-12-10T00:25:03,42.805,6.029,0.085,0.0,-0.018,100.0,104.0,98.0,13.4,1505.3,326.4,-0.7,1.8,2470.036,13.32,0.084,90.0
2019-12-10T00:28:03,42.805,6.029,0.08,0.024,-0.022,100.0,104.0,99.0,13.4,1505.3,326.0,-0.7,1.8,2470.01,13.32,0.083,73.3
2019-12-10T00:31:03,42.805,6.029,0.09,-0.03,-0.04,99.0,105.0,98.0,13.3,1505.3,326.6,-0.7,1.8,2470.043,13.32,0.094,108.4
2019-12-10T00:34:03,42.805,6.029,0.091,0.0,-0.023,100.0,104.0,98.0,13.4,1505.3,326.3,-0.7,1.9,2470.044,13.32,0.091,90.0
2019-12-10T00:37:03,42.805,6.029,0.063,-0.005,-0.015,100.0,104.0,98.0,13.4,1505.3,328.7,-0.7,1.8,2470.024,13.32,0.063,94.5
2019-12-10T00:40:03,42.805,6.029,0.107,-0.012,-0.008,99.0,103.0,99.0,13.4,1505.3,325.7,-0.7,1.8,2470.016,13.32,0.107,96.4
2019-12-10T00:43:03,42.805,6.029,0.083,-0.004,-0.019,99.0,103.0,98.0,13.4,1505.3,324.9,-0.7,1.8,2470.001,13.32,0.083,92.8
2019-12-10T00:46:03,42.805,6.029,0.073,-0.018,-0.037,102.0,104.0,99.0,13.3,1505.3,325.2,-0.7,1.8,2470.009,13.32,0.075,103.8
2019-12-10T00:49:03,42.805,6.029,0.06,-0.009,-0.027,100.0,103.0,99.0,13.4,1505.3,326.7,-0.7,1.8,2470.011,13.32,0.06,98.5
2019-12-10T00:52:03,42.805,6.029,0.069,-0.011,-0.053,99.0,103.0,99.0,13.4,1505.3,327.8,-0.7,1.8,2470.056,13.32,0.069,99.1
2019-12-10T00:55:03,42.805,6.029,0.053,0.007,-0.002,100.0,105.0,98.0,13.4,1505.3,327.2,-0.7,1.9,2470.061,13.32,0.053,82.5
2019-12-10T00:58:03,42.805,6.029,0.063,0.01,-0.011,101.0,103.0,98.0,13.3,1505.3,325.4,-0.7,1.8,2470.032,13.32,0.063,81.0
2019-12-10T01:04:03,42.805,6.029,0.064,-0.014,-0.018,102.0,105.0,101.0,13.3,1505.2,326.6,-0.8,1.8,2470.062,13.3,0.065,102.3
2019-12-10T01:07:03,42.805,6.029,0.083,0.0,-0.078,101.0,103.0,98.0,13.4,1505.3,324.3,-0.7,1.8,2470.077,13.31,0.082,90.0
2019-12-10T01:10:03,42.805,6.029,0.061,-0.005,-0.038,101.0,103.0,99.0,13.3,1505.3,327.4,-0.7,1.8,2470.026,13.31,0.061,94.7
2019-12-10T01:13:03,42.805,6.029,0.077,-0.001,-0.007,101.0,105.0,98.0,13.4,1505.3,322.7,-0.8,1.8,2470.065,13.31,0.077,90.7
2019-12-10T01:16:03,42.805,6.029,0.093,-0.02,-0.013,101.0,103.0,98.0,13.4,1505.3,327.8,-0.7,1.8,2470.026,13.32,0.095,102.1
2019-12-10T01:19:03,42.805,6.029,0.066,-0.02,-0.035,100.0,103.0,99.0,13.3,1505.3,328.0,-0.7,1.9,2470.031,13.32,0.068,106.9
2019-12-10T01:22:03,42.805,6.029,0.096,-0.003,-0.039,102.0,102.0,99.0,13.4,1505.3,323.2,-0.7,1.8,2470.062,13.32,0.096,91.8
2019-12-10T01:25:03,42.805,6.029,0.078,0.002,-0.03,101.0,105.0,98.0,13.3,1505.3,324.0,-0.7,1.8,2470.03,13.32,0.078,88.5
2019-12-10T01:28:03,42.805,6.029,0.056,-0.016,-0.04,100.0,102.0,99.0,13.4,1505.3,327.6,-0.7,1.8,2470.086,13.32,0.058,105.9
2019-12-10T01:31:03,42.805,6.029,0.087,-0.024,-0.012,101.0,103.0,98.0,13.4,1505.3,327.7,-0.7,1.8,2470.029,13.32,0.09,105.4
2019-12-10T01:34:03,42.805,6.029,0.061,-0.011,-0.006,101.0,104.0,98.0,13.3,1505.3,324.5,-0.7,1.8,2470.034,13.32,0.061,100.2
2019-12-10T01:37:03,42.805,6.029,0.064,-0.007,-0.037,101.0,105.0,98.0,13.3,1505.3,327.2,-0.7,1.9,2470.049,13.32,0.064,96.2
2019-12-10T01:40:03,42.805,6.029,0.067,-0.015,-0.061,99.0,104.0,98.0,13.3,1505.3,327.2,-0.7,1.8,2470.068,13.32,0.068,102.6
2019-12-10T01:43:03,42.805,6.029,0.079,-0.007,-0.003,101.0,102.0,99.0,13.3,1505.3,328.2,-0.7,1.8,2470.009,13.32,0.079,95.1
2019-12-10T01:46:03,42.805,6.029,0.069,-0.024,-0.029,101.0,103.0,99.0,13.3,1505.3,327.4,-0.7,1.8,2470.023,13.32,0.073,109.2
2019-12-10T01:49:03,42.805,6.029,0.07,0.005,-0.03,101.0,102.0,100.0,13.4,1505.3,325.8,-0.7,1.8,2469.997,13.32,0.07,85.9
2019-12-10T01:52:03,42.805,6.029,0.062,0.015,-0.048,100.0,104.0,99.0,13.3,1505.3,325.6,-0.7,1.8,2470.042,13.32,0.063,76.4
2019-12-10T01:55:03,42.805,6.029,0.075,-0.02,-0.04,101.0,104.0,99.0,13.4,1505.3,327.8,-0.7,1.8,2470.045,13.32,0.077,104.9
2019-12-10T01:58:03,42.805,6.029,0.074,-0.006,-0.03,101.0,102.0,98.0,13.4,1505.3,326.2,-0.7,1.8,2470.047,13.32,0.074,94.6
2019-12-10T02:01:03,42.805,6.029,0.062,-0.014,-0.035,102.0,102.0,97.0,13.4,1505.3,325.7,-0.7,1.9,2470.057,13.32,0.063,102.7
2019-12-10T02:04:03,42.805,6.029,0.095,-0.012,-0.023,100.0,104.0,98.0,13.4,1505.3,325.3,-0.7,1.8,2470.079,13.32,0.095,97.2
2019-12-10T02:07:03,42.805,6.029,0.092,-0.017,-0.03,101.0,103.0,98.0,13.4,1505.3,328.1,-0.7,1.9,2470.085,13.32,0.093,100.5
2019-12-10T02:10:03,42.805,6.029,0.109,-0.011,-0.001,99.0,103.0,98.0,13.4,1505.3,325.2,-0.7,1.9,2470.083,13.32,0.109,95.8
2019-12-10T02:13:03,42.805,6.029,0.075,-0.024,0.006,101.0,102.0,98.0,13.4,1505.3,325.0,-0.7,1.9,2470.033,13.32,0.078,107.7
2019-12-10T02:16:03,42.805,6.029,0.053,0.015,-0.055,102.0,103.0,98.0,13.4,1505.3,325.3,-0.7,1.8,2470.122,13.32,0.055,74.2
2019-12-10T02:19:03,42.805,6.029,0.07,-0.021,-0.059,101.0,102.0,98.0,13.4,1505.3,327.0,-0.7,1.9,2470.031,13.32,0.073,106.7
2019-12-10T02:22:03,42.805,6.029,0.08,-0.007,-0.002,101.0,103.0,99.0,13.4,1505.3,328.0,-0.7,1.8,2470.044,13.32,0.08,95.0
2019-12-10T02:25:03,42.805,6.029,0.07,0.0,-0.022,101.0,101.0,99.0,13.4,1505.3,324.8,-0.7,1.8,2470.023,13.32,0.069,90.0
2019-12-10T02:28:03,42.805,6.029,0.071,-0.018,-0.026,100.0,103.0,99.0,13.3,1505.3,327.2,-0.7,1.8,2470.062,13.32,0.073,104.2
2019-12-10T02:31:03,42.805,6.029,0.07,-0.004,-0.056,101.0,104.0,97.0,13.4,1505.3,326.7,-0.7,1.8,2470.068,13.32,0.07,93.3
2019-12-10T02:34:03,42.805,6.029,0.056,-0.021,-0.048,100.0,102.0,99.0,13.4,1505.3,324.3,-0.7,1.8,2470.091,13.32,0.059,110.6
2019-12-10T02:37:03,42.805,6.029,0.063,-0.019,-0.035,100.0,102.0,100.0,13.3,1505.3,323.3,-0.7,1.8,2470.083,13.32,0.065,106.8
2019-12-10T02:40:03,42.805,6.029,0.078,-0.008,-0.051,101.0,102.0,99.0,13.4,1505.3,327.0,-0.7,1.8,2470.027,13.32,0.078,95.9
2019-12-10T02:43:03,42.805,6.029,0.092,-0.025,-0.021,101.0,101.0,100.0,13.4,1505.3,327.5,-0.8,1.8,2470.096,13.32,0.095,105.2
2019-12-10T02:46:03,42.805,6.029,0.084,-0.008,-0.023,100.0,103.0,98.0,13.3,1505.3,326.7,-0.7,1.8,2470.071,13.32,0.084,95.4
2019-12-10T02:49:03,42.805,6.029,0.071,-0.011,-0.03,99.0,101.0,100.0,13.4,1505.3,325.2,-0.7,1.8,2470.04,13.32,0.071,98.8
2019-12-10T02:52:03,42.805,6.029,0.09,-0.02,-0.035,99.0,103.0,99.0,13.4,1505.3,325.7,-0.7,1.9,2470.1,13.32,0.092,102.5
2019-12-10T02:55:03,42.805,6.029,0.049,0.003,-0.028,101.0,101.0,99.0,13.4,1505.3,326.1,-0.7,1.8,2470.082,13.32,0.049,86.5
2019-12-10T02:58:03,42.805,6.029,0.074,-0.007,-0.031,101.0,103.0,99.0,13.4,1505.3,323.7,-0.7,1.9,2470.09,13.32,0.074,95.4
2019-12-10T03:04:03,42.805,6.029,0.063,-0.025,-0.04,99.0,102.0,100.0,13.4,1505.2,327.1,-0.7,1.8,2470.109,13.3,0.067,111.6
2019-12-10T03:07:03,42.805,6.029,0.06,-0.003,-0.019,100.0,104.0,96.0,13.3,1505.3,327.9,-0.7,1.8,2470.17,13.31,0.06,92.9
2019-12-10T03:10:03,42.805,6.029,0.055,-0.008,0.009,101.0,104.0,100.0,13.4,1505.3,326.7,-0.7,1.8,2470.07,13.31,0.055,98.3
2019-12-10T03:13:03,42.805,6.029,0.068,0.004,-0.029,102.0,100.0,99.0,13.3,1505.3,326.2,-0.7,1.8,2470.137,13.32,0.068,86.6
2019-12-10T03:16:03,42.805,6.029,0.079,-0.006,-0.015,102.0,103.0,98.0,13.4,1505.3,327.9,-0.7,1.9,2470.119,13.32,0.079,94.3
2019-12-10T03:19:03,42.805,6.029,0.076,0.0,-0.01,102.0,103.0,100.0,13.3,1505.3,325.7,-0.7,1.8,2470.089,13.32,0.075,90.0
2019-12-10T03:22:03,42.805,6.029,0.087,0.0,-0.046,101.0,103.0,100.0,13.4,1505.3,325.0,-0.7,1.8,2470.082,13.32,0.086,90.0
2019-12-10T03:25:03,42.805,6.029,0.051,-0.019,-0.011,100.0,102.0,99.0,13.3,1505.3,324.9,-0.7,1.8,2470.117,13.32,0.054,110.4
2019-12-10T03:28:03,42.805,6.029,0.062,0.0,-0.023,100.0,102.0,99.0,13.4,1505.3,325.7,-0.7,1.8,2470.147,13.32,0.061,90.0
2019-12-10T03:31:03,42.805,6.029,0.085,-0.009,-0.003,100.0,102.0,99.0,13.4,1505.3,328.3,-0.7,1.8,2470.103,13.32,0.085,96.0
2019-12-10T03:34:03,42.805,6.029,0.052,-0.024,-0.011,100.0,103.0,99.0,13.4,1505.3,323.7,-0.8,1.8,2470.105,13.32,0.057,114.8
2019-12-10T03:37:03,42.805,6.029,0.058,-0.002,-0.015,101.0,103.0,99.0,13.4,1505.3,324.4,-0.7,1.8,2470.106,13.32,0.058,92.0
2019-12-10T03:40:03,42.805,6.029,0.057,-0.011,0.0,101.0,102.0,99.0,13.3,1505.3,327.8,-0.8,1.8,2470.137,13.32,0.058,100.9
2019-12-10T03:43:03,42.805,6.029,0.065,-0.016,-0.061,101.0,103.0,100.0,13.3,1505.3,323.9,-0.7,1.8,2470.107,13.32,0.066,103.8
2019-12-10T03:46:03,42.805,6.029,0.077,0.001,-0.013,101.0,103.0,98.0,13.4,1505.3,323.5,-0.7,1.9,2470.19,13.32,0.077,89.3
2019-12-10T03:49:03,42.805,6.029,0.074,-0.021,-0.016,102.0,102.0,99.0,13.3,1505.3,326.2,-0.7,1.9,2470.122,13.32,0.076,105.8
2019-12-10T03:52:03,42.805,6.029,0.084,-0.01,-0.002,100.0,103.0,99.0,13.3,1505.3,328.1,-0.7,1.8,2470.185,13.32,0.084,96.8
2019-12-10T03:55:03,42.805,6.029,0.077,-0.028,-0.041,102.0,102.0,98.0,13.3,1505.3,324.4,-0.7,1.8,2470.093,13.32,0.081,110.0
2019-12-10T03:58:03,42.805,6.029,0.05,-0.012,-0.058,101.0,102.0,100.0,13.4,1505.3,324.3,-0.7,1.8,2470.121,13.32,0.051,103.5
2019-12-10T04:01:03,42.805,6.029,0.058,-0.006,-0.038,102.0,102.0,99.0,13.4,1505.3,327.2,-0.7,1.8,2470.15,13.32,0.058,95.9
2019-12-10T04:04:03,42.805,6.029,0.064,-0.023,-0.036,100.0,103.0,98.0,13.3,1505.3,325.9,-0.7,1.8,2470.196,13.32,0.068,109.8
2019-12-10T04:07:03,42.805,6.029,0.057,-0.025,-0.022,100.0,102.0,99.0,13.4,1505.3,328.0,-0.7,1.8,2470.12,13.32,0.062,113.7
2019-12-10T04:10:03,42.805,6.029,0.071,-0.01,0.005,101.0,103.0,99.0,13.3,1505.3,327.1,-0.7,1.8,2470.177,13.32,0.071,98.0
2019-12-10T04:13:03,42.805,6.029,0.068,-0.012,-0.021,100.0,103.0,98.0,13.3,1505.3,324.5,-0.7,1.8,2470.149,13.32,0.069,100.0
2019-12-10T04:16:03,42.805,6.029,0.09,-0.031,-0.034,101.0,103.0,98.0,13.4,1505.3,324.9,-0.7,1.8,2470.143,13.32,0.095,109.0
2019-12-10T04:19:03,42.805,6.029,0.084,-0.034,0.04,99.0,103.0,99.0,13.4,1505.3,324.3,-0.7,1.8,2470.153,13.32,0.09,112.0
2019-12-10T04:22:03,42.805,6.029,0.061,-0.019,-0.005,101.0,103.0,99.0,13.4,1505.3,326.0,-0.7,1.8,2470.139,13.32,0.063,107.3
2019-12-10T04:25:03,42.805,6.029,0.07,-0.023,-0.048,100.0,103.0,98.0,13.4,1505.3,325.8,-0.7,1.8,2470.209,13.32,0.073,108.2
2019-12-10T04:28:03,42.805,6.029,0.059,-0.009,-0.032,101.0,102.0,98.0,13.4,1505.3,327.9,-0.7,1.8,2470.162,13.32,0.059,98.7
2019-12-10T04:31:03,42.805,6.029,0.042,-0.012,-0.048,100.0,103.0,99.0,13.4,1505.3,328.5,-0.7,1.8,2470.18,13.32,0.043,105.9
2019-12-10T04:34:03,42.805,6.029,0.047,-0.005,0.0,101.0,102.0,99.0,13.3,1505.3,324.6,-0.7,1.8,2470.156,13.32,0.047,96.1
2019-12-10T04:37:03,42.805,6.029,0.08,-0.019,-0.002,101.0,103.0,99.0,13.3,1505.3,327.3,-0.7,1.8,2470.145,13.32,0.082,103.4
2019-12-10T04:40:03,42.805,6.029,0.037,-0.019,-0.056,101.0,104.0,99.0,13.4,1505.3,324.1,-0.7,1.8,2470.176,13.32,0.041,117.2
2019-12-10T04:43:03,42.805,6.029,0.084,-0.017,-0.029,100.0,102.0,99.0,13.4,1505.3,325.1,-0.7,1.8,2470.149,13.32,0.085,101.4
2019-12-10T04:46:03,42.805,6.029,0.071,-0.015,-0.028,101.0,103.0,99.0,13.4,1505.3,326.9,-0.7,1.8,2470.181,13.32,0.072,101.9
2019-12-10T04:49:03,42.805,6.029,0.041,0.001,-0.059,102.0,102.0,99.0,13.4,1505.3,324.3,-0.7,1.8,2470.14,13.32,0.041,88.6
2019-12-10T04:52:03,42.805,6.029,0.054,-0.022,-0.007,102.0,103.0,98.0,13.3,1505.3,325.1,-0.7,1.8,2470.194,13.32,0.058,112.2
2019-12-10T04:55:03,42.805,6.029,0.085,-0.03,-0.016,101.0,103.0,99.0,13.4,1505.3,325.5,-0.7,1.8,2470.167,13.32,0.09,109.4
2019-12-10T04:58:03,42.805,6.029,0.071,-0.016,-0.013,101.0,104.0,99.0,13.3,1505.3,327.9,-0.7,1.8,2470.192,13.32,0.072,102.7
2019-12-10T05:04:03,42.805,6.029,0.056,-0.011,-0.002,101.0,102.0,99.0,13.4,1505.2,324.8,-0.8,1.8,2470.243,13.3,0.057,101.1
2019-12-10T05:07:03,42.805,6.029,0.064,-0.018,-0.042,101.0,101.0,98.0,13.4,1505.3,327.6,-0.7,1.9,2470.228,13.31,0.066,105.7
2019-12-10T05:10:03,42.805,6.029,0.064,0.0,-0.002,101.0,102.0,99.0,13.4,1505.3,327.7,-0.7,1.8,2470.168,13.31,0.063,90.0
2019-12-10T05:13:03,42.805,6.029,0.061,0.006,-0.004,101.0,103.0,99.0,13.4,1505.3,325.7,-0.7,1.9,2470.203,13.32,0.061,84.4
2019-12-10T05:16:03,42.805,6.029,0.069,-0.03,-0.04,102.0,104.0,99.0,13.4,1505.3,324.1,-0.7,1.8,2470.181,13.32,0.075,113.5
2019-12-10T05:19:03,42.805,6.029,0.052,-0.019,-0.014,101.0,103.0,98.0,13.4,1505.3,327.7,-0.7,1.8,2470.175,13.32,0.055,110.1
2019-12-10T05:22:03,42.805,6.029,0.08,-0.013,-0.009,101.0,103.0,98.0,13.3,1505.3,326.2,-0.7,1.8,2470.199,13.32,0.081,99.2
2019-12-10T05:25:03,42.805,6.029,0.069,-0.028,-0.023,101.0,102.0,99.0,13.4,1505.3,324.9,-0.7,1.8,2470.196,13.32,0.074,112.1
2019-12-10T05:28:03,42.805,6.029,0.071,-0.025,-0.031,101.0,102.0,98.0,13.4,1505.3,326.2,-0.7,1.8,2470.199,13.32,0.075,109.4
2019-12-10T05:31:03,42.805,6.029,0.059,-0.028,-0.023,101.0,102.0,99.0,13.4,1505.3,323.2,-0.8,1.9,2470.214,13.32,0.065,115.4
2019-12-10T05:34:03,42.805,6.029,0.05,-0.017,-0.008,102.0,106.0,99.0,13.3,1505.3,325.5,-0.7,1.8,2470.203,13.32,0.052,108.8
2019-12-10T05:37:03,42.805,6.029,0.051,-0.01,-0.006,102.0,103.0,98.0,13.4,1505.3,327.3,-0.7,1.8,2470.164,13.32,0.051,101.1
2019-12-10T05:40:03,42.805,6.029,0.042,-0.016,-0.02,100.0,103.0,98.0,13.4,1505.3,324.8,-0.7,1.8,2470.217,13.32,0.044,110.9
2019-12-10T05:43:03,42.805,6.029,0.045,-0.015,-0.002,100.0,102.0,99.0,13.4,1505.3,324.1,-0.7,1.9,2470.252,13.32,0.047,108.4
2019-12-10T05:46:03,42.805,6.029,0.038,-0.023,-0.027,101.0,103.0,98.0,13.4,1505.3,325.8,-0.7,1.8,2470.2,13.32,0.044,121.2
2019-12-10T05:49:03,42.805,6.029,0.061,-0.009,-0.038,101.0,104.0,99.0,13.4,1505.3,324.5,-0.7,1.8,2470.248,13.32,0.061,98.4
2019-12-10T05:52:03,42.805,6.029,0.047,-0.017,-0.006,100.0,103.0,99.0,13.4,1505.3,323.0,-0.7,1.9,2470.216,13.32,0.049,109.9
2019-12-10T05:55:03,42.805,6.029,0.05,-0.018,-0.049,101.0,103.0,98.0,13.4,1505.3,325.9,-0.7,1.8,2470.187,13.32,0.053,109.8
2019-12-10T05:58:03,42.805,6.029,0.087,-0.04,0.012,101.0,102.0,98.0,13.4,1505.3,325.5,-0.7,1.8,2470.227,13.32,0.095,114.7
2019-12-10T06:04:03,42.805,6.029,0.074,-0.029,-0.016,100.0,102.0,98.0,13.3,1505.2,326.5,-0.7,1.8,2470.25,13.3,0.079,111.4
2019-12-10T06:07:03,42.805,6.029,0.077,-0.01,-0.003,101.0,102.0,99.0,13.3,1505.3,324.2,-0.7,1.8,2470.228,13.31,0.077,97.4
2019-12-10T06:10:03,42.805,6.029,0.074,-0.023,-0.014,101.0,102.0,99.0,13.4,1505.3,324.6,-0.7,1.9,2470.19,13.31,0.077,107.3
2019-12-10T06:13:03,42.805,6.029,0.058,-0.02,-0.041,103.0,104.0,99.0,13.4,1505.3,324.2,-0.7,1.8,2470.229,13.32,0.061,109.0
2019-12-10T06:16:03,42.805,6.029,0.072,-0.035,-0.052,101.0,101.0,99.0,13.4,1505.3,328.9,-0.7,1.8,2470.196,13.32,0.08,115.9
2019-12-10T06:19:03,42.805,6.029,0.067,-0.01,-0.017,101.0,101.0,98.0,13.4,1505.3,326.7,-0.7,1.8,2470.222,13.32,0.067,98.5
2019-12-10T06:22:03,42.805,6.029,0.046,-0.02,-0.027,100.0,103.0,99.0,13.3,1505.3,328.0,-0.7,1.8,2470.224,13.32,0.05,113.5
2019-12-10T06:25:03,42.805,6.029,0.058,0.003,-0.018,101.0,102.0,98.0,13.4,1505.3,323.1,-0.7,1.8,2470.186,13.32,0.058,87.0
2019-12-10T06:28:03,42.805,6.029,0.081,-0.026,-0.041,101.0,103.0,97.0,13.4,1505.3,324.9,-0.7,1.8,2470.213,13.32,0.085,107.8
2019-12-10T06:31:03,42.805,6.029,0.057,-0.011,-0.001,101.0,101.0,99.0,13.4,1505.3,327.0,-0.7,1.8,2470.195,13.32,0.058,100.9
2019-12-10T06:34:03,42.805,6.029,0.048,-0.008,0.002,100.0,103.0,99.0,13.4,1505.3,326.0,-0.7,1.8,2470.213,13.32,0.048,99.5
2019-12-10T06:37:03,42.805,6.029,0.057,-0.006,0.013,101.0,102.0,99.0,13.4,1505.3,326.1,-0.7,1.8,2470.208,13.32,0.057,96.0
2019-12-10T06:40:03,42.805,6.029,0.066,0.007,-0.006,102.0,102.0,98.0,13.3,1505.3,323.5,-0.7,1.8,2470.186,13.32,0.066,83.9
2019-12-10T06:43:03,42.805,6.029,0.056,-0.017,-0.008,101.0,102.0,98.0,13.4,1505.3,326.5,-0.7,1.9,2470.178,13.32,0.058,106.9
2019-12-10T06:46:03,42.805,6.029,0.04,-0.014,-0.036,101.0,103.0,98.0,13.4,1505.3,327.6,-0.7,1.8,2470.195,13.32,0.042,109.3
2019-12-10T06:49:03,42.805,6.029,0.065,0.014,-0.001,100.0,102.0,99.0,13.4,1505.3,324.7,-0.7,1.8,2470.174,13.32,0.066,77.8
2019-12-10T06:52:03,42.805,6.029,0.063,-0.007,-0.02,101.0,102.0,98.0,13.3,1505.3,326.0,-0.7,1.8,2470.22,13.32,0.063,96.3
2019-12-10T06:55:03,42.805,6.029,0.079,-0.015,-0.014,101.0,104.0,98.0,13.4,1505.3,327.9,-0.7,1.8,2470.196,13.32,0.08,100.8
2019-12-10T06:58:03,42.805,6.029,0.074,0.0,0.0,100.0,103.0,98.0,13.4,1505.3,327.2,-0.7,1.8,2470.174,13.32,0.073,90.0
2019-12-10T07:04:03,42.805,6.029,0.067,-0.016,-0.029,100.0,104.0,98.0,13.4,1505.2,326.8,-0.7,1.8,2470.243,13.3,0.068,103.4
2019-12-10T07:07:03,42.805,6.029,0.057,-0.014,0.009,101.0,103.0,99.0,13.4,1505.3,327.1,-0.7,1.8,2470.24,13.31,0.058,103.8
2019-12-10T07:10:03,42.805,6.029,0.03,-0.011,-0.037,102.0,104.0,98.0,13.3,1505.3,326.9,-0.7,1.8,2470.229,13.31,0.031,110.1
2019-12-10T07:13:03,42.805,6.029,0.061,-0.016,-0.031,101.0,105.0,98.0,13.4,1505.3,324.1,-0.7,1.8,2470.262,13.32,0.063,104.7
2019-12-10T07:16:03,42.805,6.029,0.046,-0.018,-0.014,100.0,102.0,98.0,13.3,1505.3,325.2,-0.7,1.8,2470.199,13.32,0.049,111.4
2019-12-10T07:19:03,42.805,6.029,0.039,0.013,-0.033,101.0,104.0,99.0,13.3,1505.3,324.7,-0.7,1.8,2470.223,13.32,0.041,71.6
2019-12-10T07:22:03,42.805,6.029,0.038,-0.001,-0.008,101.0,103.0,100.0,13.4,1505.3,328.2,-0.7,1.8,2470.189,13.32,0.038,91.5
2019-12-10T07:25:03,42.805,6.029,0.082,-0.002,-0.005,101.0,102.0,98.0,13.3,1505.3,326.0,-0.7,1.8,2470.171,13.32,0.082,91.4
2019-12-10T07:28:03,42.805,6.029,0.06,-0.021,-0.007,100.0,102.0,100.0,13.3,1505.3,325.2,-0.7,1.9,2470.199,13.32,0.063,109.3
2019-12-10T07:31:03,42.805,6.029,0.047,-0.025,-0.017,102.0,103.0,98.0,13.3,1505.3,326.5,-0.7,1.9,2470.194,13.32,0.053,118.0
2019-12-10T07:34:03,42.805,6.029,0.053,0.0,-0.049,101.0,103.0,98.0,13.3,1505.3,326.2,-0.7,1.8,2470.183,13.32,0.053,90.0
2019-12-10T07:37:03,42.805,6.029,0.05,-0.01,-0.019,100.0,103.0,99.0,13.4,1505.3,326.8,-0.7,1.8,2470.234,13.32,0.05,101.3
2019-12-10T07:40:03,42.805,6.029,0.049,-0.012,-0.032,101.0,102.0,97.0,13.4,1505.3,323.7,-0.7,1.8,2470.204,13.32,0.05,103.8
2019-12-10T07:43:03,42.805,6.029,0.049,-0.005,-0.022,100.0,102.0,98.0,13.4,1505.3,326.3,-0.7,1.8,2470.148,13.32,0.049,95.8
2019-12-10T07:46:03,42.805,6.029,0.065,-0.016,-0.009,100.0,102.0,99.0,13.4,1505.3,324.6,-0.7,1.8,2470.195,13.32,0.066,103.8
2019-12-10T07:49:03,42.805,6.029,0.024,-0.008,-0.038,103.0,102.0,98.0,13.3,1505.3,325.8,-0.7,1.9,2470.153,13.32,0.025,108.4
2019-12-10T07:52:03,42.805,6.029,0.053,-0.015,-0.024,102.0,104.0,98.0,13.4,1505.3,325.2,-0.7,1.8,2470.191,13.32,0.055,105.8
2019-12-10T07:55:03,42.805,6.029,0.052,-0.022,-0.051,100.0,104.0,98.0,13.4,1505.3,326.7,-0.7,1.8,2470.159,13.32,0.056,112.9
2019-12-10T07:58:03,42.805,6.029,0.04,0.013,0.003,100.0,103.0,98.0,13.4,1505.3,324.7,-0.7,1.8,2470.173,13.32,0.042,72.0
2019-12-10T08:01:03,42.805,6.029,0.041,-0.01,-0.023,100.0,104.0,98.0,13.4,1505.3,327.0,-0.7,1.8,2470.128,13.32,0.042,103.7
2019-12-10T08:04:03,42.805,6.029,0.043,-0.017,-0.028,99.0,105.0,98.0,13.4,1505.3,325.0,-0.7,1.8,2470.164,13.32,0.046,111.6
2019-12-10T08:07:03,42.805,6.029,0.019,-0.008,-0.02,102.0,105.0,98.0,13.3,1505.3,324.8,-0.7,1.8,2470.188,13.32,0.02,112.8
2019-12-10T08:10:03,42.805,6.029,0.026,0.0,-0.058,99.0,106.0,99.0,13.4,1505.3,326.6,-0.7,1.8,2470.167,13.32,0.026,90.0
2019-12-10T08:13:03,42.805,6.029,0.014,0.016,-0.074,101.0,105.0,98.0,13.3,1505.3,328.5,-0.7,1.8,2470.149,13.32,0.021,41.2
2019-12-10T08:16:03,42.805,6.029,0.006,0.005,-0.034,101.0,105.0,99.0,13.4,1505.3,325.6,-0.7,1.8,2470.157,13.32,0.007,50.2
2019-12-10T08:19:03,42.805,6.029,0.019,-0.001,-0.058,100.0,105.0,98.0,13.4,1505.3,325.7,-0.7,1.8,2470.166,13.32,0.019,93.0
2019-12-10T08:22:03,42.805,6.029,0.014,0.003,-0.081,101.0,106.0,98.0,13.3,1505.3,325.1,-0.7,1.8,2470.177,13.33,0.014,77.9
2019-12-10T08:25:03,42.805,6.029,0.061,-0.008,-0.021,102.0,103.0,98.0,13.3,1505.3,324.0,-0.7,1.9,2470.113,13.33,0.061,97.5
2019-12-10T08:28:03,42.805,6.029,0.04,-0.018,-0.022,101.0,104.0,98.0,13.4,1505.3,325.8,-0.7,1.8,2470.15,13.33,0.043,114.2
2019-12-10T08:31:03,42.805,6.029,0.091,-0.013,-0.008,101.0,103.0,99.0,13.4,1505.3,327.7,-0.7,1.8,2470.136,13.32,0.091,98.1
2019-12-10T08:34:03,42.805,6.029,0.084,-0.008,0.037,101.0,106.0,99.0,13.4,1505.3,327.9,-0.7,1.8,2470.219,13.32,0.084,95.4
2019-12-10T08:37:03,42.805,6.029,0.059,-0.011,-0.023,100.0,104.0,98.0,13.4,1505.3,324.7,-0.7,1.9,2470.144,13.32,0.06,100.6
2019-12-10T08:40:03,42.805,6.029,0.069,-0.013,0.006,100.0,102.0,99.0,13.3,1505.3,326.8,-0.7,1.9,2470.174,13.32,0.07,100.7
2019-12-10T08:43:03,42.805,6.029,0.098,0.013,0.036,100.0,106.0,98.0,13.3,1505.3,323.9,-0.7,1.8,2470.179,13.32,0.098,82.4
2019-12-10T08:46:03,42.805,6.029,0.053,0.002,-0.009,101.0,105.0,99.0,13.3,1505.3,324.7,-0.7,1.8,2470.135,13.32,0.053,87.8
2019-12-10T08:49:03,42.805,6.029,0.079,-0.006,0.003,101.0,104.0,99.0,13.3,1505.3,326.9,-0.7,1.8,2470.111,13.32,0.079,94.3
2019-12-10T08:52:03,42.805,6.029,0.065,0.006,0.013,102.0,104.0,98.0,13.4,1505.3,325.7,-0.7,1.8,2470.162,13.32,0.065,84.7
2019-12-10T08:55:03,42.805,6.029,0.095,0.004,0.027,100.0,104.0,98.0,13.3,1505.3,324.6,-0.7,1.8,2470.171,13.32,0.095,87.6
2019-12-10T08:58:03,42.805,6.029,0.049,0.006,-0.01,101.0,105.0,98.0,13.3,1505.3,324.7,-0.7,1.8,2470.156,13.32,0.049,83.0
2019-12-10T09:04:03,42.805,6.029,0.042,-0.012,-0.023,101.0,104.0,98.0,13.4,1505.2,325.6,-0.7,1.8,2470.186,13.3,0.043,105.9
2019-12-10T09:07:03,42.805,6.029,0.023,0.007,-0.054,100.0,104.0,99.0,13.3,1505.3,327.9,-0.7,1.8,2470.159,13.31,0.024,73.1
2019-12-10T09:10:03,42.805,6.029,0.086,0.009,0.015,100.0,104.0,99.0,13.4,1505.3,323.8,-0.7,1.8,2470.19,13.31,0.086,84.0
2019-12-10T09:13:03,42.805,6.029,0.058,0.002,-0.019,101.0,103.0,98.0,13.4,1505.3,327.6,-0.7,1.8,2470.155,13.32,0.058,88.0
2019-12-10T09:16:03,42.805,6.029,0.072,-0.009,-0.029,99.0,104.0,99.0,13.4,1505.3,326.7,-0.7,1.8,2470.164,13.32,0.072,97.1
2019-12-10T09:19:03,42.805,6.029,0.03,0.0,-0.068,101.0,104.0,98.0,13.4,1505.3,325.6,-0.7,1.9,2470.154,13.32,0.03,90.0
2019-12-10T09:22:03,42.805,6.029,0.075,0.004,0.027,101.0,105.0,99.0,13.4,1505.3,327.9,-0.7,1.8,2470.158,13.32,0.075,87.0
2019-12-10T09:25:03,42.805,6.029,0.073,-0.002,-0.009,102.0,105.0,99.0,13.3,1505.3,325.9,-0.7,1.8,2470.135,13.32,0.073,91.6
2019-12-10T09:28:03,42.805,6.029,0.07,-0.001,-0.015,102.0,104.0,99.0,13.4,1505.3,328.1,-0.7,1.8,2470.152,13.32,0.07,90.8
2019-12-10T09:31:03,42.805,6.029,0.041,0.009,0.0,101.0,103.0,98.0,13.4,1505.3,325.4,-0.7,1.8,2470.145,13.32,0.041,77.6
2019-12-10T09:34:03,42.805,6.029,0.049,-0.009,-0.031,102.0,104.0,98.0,13.3,1505.3,325.1,-0.7,1.8,2470.137,13.32,0.049,100.4
2019-12-10T09:37:03,42.805,6.029,0.048,0.005,-0.008,100.0,103.0,99.0,13.4,1505.3,327.9,-0.7,1.8,2470.15,13.32,0.048,84.1
2019-12-10T09:40:03,42.805,6.029,0.058,0.0,-0.01,99.0,105.0,99.0,13.4,1505.3,323.6,-0.7,1.8,2470.133,13.32,0.057,90.0
2019-12-10T09:43:03,42.805,6.029,0.063,-0.007,-0.015,101.0,103.0,98.0,13.4,1505.3,324.6,-0.7,1.8,2470.13,13.32,0.063,96.3
2019-12-10T09:46:03,42.805,6.029,0.055,0.0,-0.015,100.0,102.0,99.0,13.3,1505.3,324.4,-0.7,1.8,2470.095,13.32,0.055,90.0
2019-12-10T09:49:03,42.805,6.029,0.046,-0.006,0.026,99.0,104.0,98.0,13.3,1505.3,325.0,-0.7,1.9,2470.133,13.32,0.046,97.4
2019-12-10T09:52:03,42.805,6.029,0.063,0.005,-0.01,100.0,103.0,98.0,13.3,1505.3,326.9,-0.7,1.8,2470.073,13.32,0.063,85.5
2019-12-10T09:55:03,42.805,6.029,0.038,-0.001,-0.037,100.0,105.0,98.0,13.3,1505.3,326.8,-0.7,1.8,2470.13,13.32,0.038,91.5